CZ-6A DEB, 61371

Orbit data source: Space-Track

CZ-6A DEB, 61371 is space debris in LEO originally from a launch on Tue, 06 Aug 2024 UTC launched from the Taiyaun Space Center, China (TSC). Debris objects in space refer to the collection of defunct objects orbiting the Earth. Examples of debris include non-operational satellites, rocket bodies, and fragments generated from explosions, collisions, or faulty payload assembly.

Loading next visibility...
Identifier
61371, 2024-140WL
Orbit
LEO
Country
Flag of CNCN / PRC
Related business
Manufacturer
SAST
Mission
Spacecraft
Bus & Motor
Unknown
Mass
Unknown
Launch date (UTC)
2024-08-06 (2 years ago)
Launch vehicle
Unknown
Launch site
Taiyaun Space Center, China (TSC)
Object type
Payload
Rocket body
Debris
Shape & HBR
Unknown shape, 0.1 m
Radar Cross Section
Medium (>0.1 m² and <1 m²)

Expand to show TLE details & history
Last TLE update: 20 hours ago

TLE from 20 hours ago
0 CZ-6A DEB
1 61371U 24140WL  26171.13317730  .00004252  00000-0  11746-2 0  9995
2 61371  88.4460 226.5497 0112134  21.7415 338.8492 14.42912299 93953
Epoch: 2026-06-20T03:11Z
TLE epoch observation values (Epoch: 2026-06-20T03:11:46.518Z)
Latitude
-0°
Longitude
-89.7463°
Altitude
677.544 km
Speed
7.557 km/s
True Right ascension
15h 06m 11s
True Declination
0° 00' 00"
Sunlit
Object was in full shadow at epoch
Visualization orbit readout
Latitude
Unknown
Longitude
Unknown
Altitude
Unknown
Speed
Unknown
Apparent Right ascension
Unknown
Apparent Declination
Unknown
Sunlit
N/A
Visualization observer readout
Local Sidereal Time
10:17:12
Azimuth
Unknown
Elevation
Unknown
Doppler factor
Unknown
Orbital elements
Apogee altitude
825.698 km
Perigee altitude
665.931 km
Semi-major axis
7,123.951 km
Eccentricity
0.01121
Inclination
88.446°
RAAN
226.5497°
Arg. of periapsis
21.7415°
True anomaly
338.37942°
Mean anomaly
338.8492°
Eccentric anomaly
338.61493°
Mean motion
3.60962 °/min
Orbital period
99.73 mins
BSTAR
0.0011746
Loading maneuver chart data...
Computing Atmospheric mass density...
Loading historical data...
Loading historical data...
Loading historical data...
Loading historical data...
Loading historical data...
Loading historical data...
Loading historical data...

Documentation

Showing up to 5 results
|